When you browse on this site, cookies collect data to enhance your experience and personalize the content and advertising you see.
Visit our Privacy Policy to learn more. By continuing to use the site, you agree to this use of cookies and data.
  • In Deutschland
  • Länderverzeichnis
  • Für 7 Tage
  • Wassertemperatur
  • Wetterkarte
  • Widgets
  • user-avatar
    Anmelden

    Stündliche Wetter Kochnevskoe

    Heute, 16 Oktober, Mittwoch

    Zeit Temperatur Niederschläge Wind Luftdruck Luftfeuchtigkeit
    00:00 +2°C° 0 mm 2 m/S 742 mmHg 93%
    01:00 +2°C° 0 mm 2 m/S 742 mmHg 93%
    02:00 +2°C° 0 mm 2 m/S 742 mmHg 93%
    03:00 0°C° 0 mm 3 m/S 743 mmHg 92%
    04:00 0°C° 0 mm 3 m/S 743 mmHg 91%
    05:00 0°C° 0 mm 3 m/S 743 mmHg 91%
    06:00 0°C° 0 mm 3 m/S 743 mmHg 92%
    07:00 0°C° 0 mm 3 m/S 744 mmHg 92%
    08:00 -1°C° 0.1 mm 4 m/S 744 mmHg 93%
    09:00 0°C° 0.1 mm 4 m/S 745 mmHg 94%
    10:00 0°C° 0.1 mm 4 m/S 745 mmHg 95%
    11:00 0°C° 0.1 mm 4 m/S 745 mmHg 95%
    12:00 0°C° 0.1 mm 4 m/S 746 mmHg 95%
    13:00 0°C° 0.1 mm 5 m/S 746 mmHg 95%
    14:00 0°C° 0 mm 4 m/S 747 mmHg 92%
    15:00 0°C° 0 mm 4 m/S 747 mmHg 89%
    16:00 +1°C° 0 mm 4 m/S 748 mmHg 86%
    17:00 0°C° 0 mm 4 m/S 748 mmHg 87%
    18:00 0°C° 0 mm 4 m/S 749 mmHg 87%
    19:00 0°C° 0 mm 4 m/S 749 mmHg 88%
    20:00 0°C° 0 mm 4 m/S 750 mmHg 89%
    21:00 0°C° 0 mm 4 m/S 750 mmHg 90%
    22:00 0°C° 0 mm 4 m/S 751 mmHg 91%
    23:00 -1°C° 0.1 mm 4 m/S 751 mmHg 90%

    Morgen, 17 Oktober, Donnerstag

    Zeit Temperatur Niederschläge Wind Luftdruck Luftfeuchtigkeit
    00:00 -1°C° 0.1 mm 4 m/S 751 mmHg 89%
    01:00 -1°C° 0.1 mm 4 m/S 752 mmHg 87%
    02:00 -2°C° 0 mm 4 m/S 752 mmHg 87%
    03:00 -2°C° 0 mm 4 m/S 753 mmHg 86%
    04:00 -2°C° 0 mm 4 m/S 753 mmHg 86%
    05:00 -2°C° 0 mm 4 m/S 754 mmHg 86%
    06:00 -2°C° 0 mm 4 m/S 754 mmHg 85%
    07:00 -1°C° 0 mm 3 m/S 754 mmHg 85%
    08:00 -2°C° 0 mm 4 m/S 754 mmHg 81%
    09:00 -1°C° 0 mm 4 m/S 754 mmHg 77%
    10:00 0°C° 0 mm 4 m/S 755 mmHg 73%
    11:00 0°C° 0 mm 4 m/S 755 mmHg 72%
    12:00 0°C° 0 mm 4 m/S 755 mmHg 71%
    13:00 0°C° 0 mm 4 m/S 755 mmHg 70%
    14:00 0°C° 0 mm 4 m/S 755 mmHg 71%
    15:00 +1°C° 0 mm 3 m/S 755 mmHg 72%
    16:00 0°C° 0 mm 3 m/S 755 mmHg 73%
    17:00 +1°C° 0 mm 2 m/S 755 mmHg 76%
    18:00 -1°C° 0 mm 2 m/S 755 mmHg 78%
    19:00 -1°C° 0 mm 2 m/S 755 mmHg 81%
    20:00 -1°C° 0 mm 2 m/S 754 mmHg 83%
    21:00 -1°C° 0 mm 2 m/S 754 mmHg 85%
    22:00 -1°C° 0 mm 2 m/S 754 mmHg 87%
    23:00 -1°C° 0.2 mm 2 m/S 753 mmHg 90%

    übermorgen, 18 Oktober, Freitag

    Zeit Temperatur Niederschläge Wind Luftdruck Luftfeuchtigkeit
    00:00 -1°C° 0.2 mm 2 m/S 753 mmHg 93%
    01:00 -1°C° 0.2 mm 2 m/S 752 mmHg 97%
    02:00 -1°C° 0.3 mm 2 m/S 752 mmHg 97%
    03:00 -1°C° 0.3 mm 2 m/S 751 mmHg 97%
    04:00 -1°C° 0.3 mm 2 m/S 751 mmHg 97%
    05:00 -1°C° 0.1 mm 2 m/S 750 mmHg 97%
    06:00 -1°C° 0.1 mm 2 m/S 750 mmHg 97%
    07:00 -1°C° 0.1 mm 2 m/S 749 mmHg 97%
    08:00 -1°C° 0.2 mm 2 m/S 749 mmHg 97%
    09:00 -1°C° 0.2 mm 2 m/S 749 mmHg 97%
    10:00 +1°C° 0.2 mm 2 m/S 749 mmHg 96%
    11:00 +1°C° 0.4 mm 2 m/S 749 mmHg 97%
    12:00 0°C° 0.4 mm 3 m/S 749 mmHg 97%
    13:00 0°C° 0.4 mm 3 m/S 749 mmHg 97%
    14:00 0°C° 0.3 mm 3 m/S 749 mmHg 97%
    15:00 -2°C° 0.3 mm 4 m/S 750 mmHg 97%
    16:00 -2°C° 0.3 mm 4 m/S 750 mmHg 97%
    17:00 -2°C° 0.1 mm 4 m/S 751 mmHg 95%
    18:00 -2°C° 0.1 mm 4 m/S 751 mmHg 94%
    19:00 -2°C° 0.1 mm 4 m/S 752 mmHg 92%
    20:00 -3°C° 0 mm 4 m/S 753 mmHg 91%
    21:00 -3°C° 0 mm 4 m/S 754 mmHg 89%
    22:00 -4°C° 0 mm 4 m/S 755 mmHg 87%
    23:00 -4°C° 0 mm 4 m/S 755 mmHg 86%

    19 Oktober, Samstag

    Zeit Temperatur Niederschläge Wind Luftdruck Luftfeuchtigkeit
    00:00 -4°C° 0 mm 4 m/S 755 mmHg 85%
    01:00 -4°C° 0 mm 3 m/S 756 mmHg 84%
    02:00 -5°C° 0 mm 3 m/S 757 mmHg 86%
    03:00 -6°C° 0 mm 3 m/S 757 mmHg 88%
    04:00 -7°C° 0 mm 3 m/S 758 mmHg 90%
    05:00 -7°C° 0 mm 3 m/S 758 mmHg 90%
    06:00 -6°C° 0 mm 2 m/S 759 mmHg 90%
    07:00 -6°C° 0 mm 2 m/S 759 mmHg 90%
    08:00 -5°C° 0 mm 2 m/S 759 mmHg 85%
    09:00 -4°C° 0 mm 2 m/S 760 mmHg 79%
    10:00 -3°C° 0 mm 2 m/S 760 mmHg 74%
    11:00 -2°C° 0 mm 2 m/S 760 mmHg 71%
    12:00 -2°C° 0 mm 2 m/S 761 mmHg 68%
    13:00 -1°C° 0 mm 2 m/S 761 mmHg 66%
    14:00 0°C° 0 mm 1 m/S 761 mmHg 69%
    15:00 0°C° 0 mm 1 m/S 761 mmHg 72%
    16:00 -1°C° 0 mm 1 m/S 761 mmHg 76%
    17:00 -1°C° 0 mm 1 m/S 762 mmHg 78%
    18:00 -3°C° 0 mm 0 m/S 762 mmHg 80%
    19:00 -3°C° 0 mm 0 m/S 762 mmHg 82%
    20:00 -4°C° 0 mm 0 m/S 762 mmHg 82%
    21:00 -4°C° 0 mm 0 m/S 763 mmHg 82%
    22:00 -3°C° 0 mm 1 m/S 763 mmHg 83%
    23:00 -3°C° 0 mm 1 m/S 763 mmHg 84%

    20 Oktober, Sonntag

    Zeit Temperatur Niederschläge Wind Luftdruck Luftfeuchtigkeit
    00:00 -3°C° 0 mm 1 m/S 763 mmHg 85%
    01:00 -3°C° 0 mm 1 m/S 763 mmHg 86%
    02:00 -5°C° 0 mm 2 m/S 763 mmHg 86%
    03:00 -5°C° 0 mm 2 m/S 763 mmHg 86%
    04:00 -5°C° 0 mm 2 m/S 763 mmHg 87%
    05:00 -5°C° 0 mm 2 m/S 763 mmHg 87%
    06:00 -5°C° 0 mm 2 m/S 763 mmHg 86%
    07:00 -5°C° 0 mm 2 m/S 763 mmHg 86%
    08:00 -5°C° 0 mm 3 m/S 763 mmHg 82%
    09:00 -4°C° 0 mm 3 m/S 762 mmHg 78%
    10:00 -3°C° 0 mm 4 m/S 762 mmHg 73%
    11:00 -2°C° 0 mm 4 m/S 762 mmHg 72%
    12:00 -2°C° 0 mm 4 m/S 761 mmHg 71%
    13:00 -1°C° 0 mm 4 m/S 761 mmHg 69%
    14:00 -1°C° 0 mm 4 m/S 761 mmHg 72%
    15:00 -2°C° 0 mm 4 m/S 760 mmHg 75%
    16:00 -2°C° 0 mm 4 m/S 760 mmHg 78%
    17:00 -2°C° 0 mm 4 m/S 760 mmHg 79%
    18:00 -2°C° 0 mm 4 m/S 759 mmHg 81%
    19:00 -3°C° 0 mm 4 m/S 759 mmHg 82%
    20:00 -3°C° 0 mm 4 m/S 758 mmHg 81%
    21:00 -3°C° 0 mm 4 m/S 758 mmHg 80%
    22:00 -3°C° 0 mm 4 m/S 758 mmHg 80%
    23:00 -2°C° 0 mm 4 m/S 757 mmHg 79%

    21 Oktober, Montag

    Zeit Temperatur Niederschläge Wind Luftdruck Luftfeuchtigkeit
    00:00 -2°C° 0 mm 4 m/S 757 mmHg 79%
    01:00 -2°C° 0 mm 4 m/S 756 mmHg 79%
    02:00 -2°C° 0.8 mm 4 m/S 756 mmHg 85%
    03:00 -2°C° 0.8 mm 4 m/S 756 mmHg 91%
    04:00 -2°C° 0.8 mm 4 m/S 756 mmHg 97%
    05:00 -2°C° 0.8 mm 4 m/S 755 mmHg 96%
    06:00 -1°C° 0.8 mm 4 m/S 755 mmHg 96%
    07:00 -1°C° 0.8 mm 4 m/S 755 mmHg 95%
    08:00 -1°C° 0.7 mm 4 m/S 755 mmHg 95%
    09:00 0°C° 0.7 mm 4 m/S 755 mmHg 95%
    10:00 +1°C° 0.7 mm 3 m/S 754 mmHg 95%
    11:00 +1°C° 0.4 mm 3 m/S 754 mmHg 96%
    12:00 +1°C° 0.4 mm 3 m/S 755 mmHg 96%
    13:00 +2°C° 0.4 mm 3 m/S 755 mmHg 96%
    14:00 +3°C° 0 mm 2 m/S 755 mmHg 96%
    15:00 +3°C° 0 mm 2 m/S 755 mmHg 97%
    16:00 +3°C° 0 mm 2 m/S 755 mmHg 97%
    17:00 +4°C° 0.1 mm 1 m/S 755 mmHg 97%
    18:00 +3°C° 0.1 mm 1 m/S 756 mmHg 97%
    19:00 +3°C° 0.1 mm 1 m/S 756 mmHg 97%
    20:00 +3°C° 0.1 mm 1 m/S 756 mmHg 97%
    21:00 +3°C° 0.1 mm 1 m/S 756 mmHg 97%
    22:00 +3°C° 0.1 mm 1 m/S 757 mmHg 98%
    23:00 +2°C° 0 mm 0 m/S 757 mmHg 98%
    Mehr zeigen